Location: Buchloe
(48.0161°N, 10.7316°E)
Time: 04:20:24
(UTC+02:00)

ISS - Pass Details

Date: 11 July 2025
Orbit: 413 x 417 km, 51.6° (Epoch: 12 July)

Event Time Altitude Azimuth Distance (km) Brightness Sun altitude
Rises 00:22:49 0° 277° (W) 2,352 0.3 -18.6°
Reaches altitude 10° 00:24:58 10° 285° (WNW) 1,490 -0.6 -18.7°
Maximum altitude 00:28:11 42° 358° (N) 602 -2.5 -18.8°
Drops below altitude 10° 00:31:24 10° 71° (ENE) 1,492 -0.9 -18.9°
Sets 00:33:34 0° 79° (E) 2,356 0.1 -19.0°
